Year,Month,Day,Hour,Minute,Value (Times are PST for windgust in km/hr)
2015,01,18,00,00,6.40
2015,01,18,00,01,6.40
2015,01,18,00,02,6.40
2015,01,18,00,03,4.80
2015,01,18,00,04,4.80
2015,01,18,00,05,9.60
2015,01,18,00,06,14.50
2015,01,18,00,07,8.10
2015,01,18,00,08,6.40
2015,01,18,00,09,6.40
2015,01,18,00,10,11.30
2015,01,18,00,11,9.60
2015,01,18,00,12,9.60
2015,01,18,00,13,9.60
2015,01,18,00,14,8.10
2015,01,18,00,15,8.10
2015,01,18,00,16,9.60
2015,01,18,00,17,11.30
2015,01,18,00,18,11.30
2015,01,18,00,19,8.10
2015,01,18,00,20,1.60
2015,01,18,00,21,1.60
2015,01,18,00,23,1.60
2015,01,18,00,24,3.20
2015,01,18,00,25,1.60
2015,01,18,00,32,4.80
2015,01,18,00,33,4.80
2015,01,18,00,34,6.40
2015,01,18,00,35,6.40
2015,01,18,00,36,4.80
2015,01,18,00,37,1.60
2015,01,18,00,38,6.40
2015,01,18,00,39,11.30
2015,01,18,00,40,14.50
2015,01,18,00,41,9.60
2015,01,18,00,42,8.10
2015,01,18,00,43,11.30
2015,01,18,00,44,11.30
2015,01,18,00,45,8.10
2015,01,18,00,46,8.10
2015,01,18,00,47,9.60
2015,01,18,00,48,9.60
2015,01,18,00,49,11.30
2015,01,18,00,50,11.30
2015,01,18,00,51,9.60
2015,01,18,00,52,16.10
2015,01,18,00,53,16.10
2015,01,18,00,54,8.10
2015,01,18,00,55,11.30
2015,01,18,00,56,16.10
2015,01,18,00,57,9.60
2015,01,18,00,58,6.40
2015,01,18,00,59,9.60
2015,01,18,01,00,9.60
2015,01,18,01,01,11.30
2015,01,18,01,02,9.60
2015,01,18,01,03,11.30
2015,01,18,01,04,11.30
2015,01,18,01,05,9.60
2015,01,18,01,06,9.60
2015,01,18,01,07,6.40
2015,01,18,01,08,4.80
2015,01,18,01,09,4.80
2015,01,18,01,10,4.80
2015,01,18,01,11,1.60
2015,01,18,01,12,1.60
2015,01,18,01,13,3.20
2015,01,18,01,14,8.10
2015,01,18,01,15,4.80
2015,01,18,01,16,6.40
2015,01,18,01,17,9.60
2015,01,18,01,18,8.10
2015,01,18,01,19,6.40
2015,01,18,01,20,9.60
2015,01,18,01,21,9.60
2015,01,18,01,22,11.30
2015,01,18,01,23,14.50
2015,01,18,01,24,11.30
2015,01,18,01,25,12.90
2015,01,18,01,26,16.10
2015,01,18,01,27,16.10
2015,01,18,01,28,14.50
2015,01,18,01,29,14.50
2015,01,18,01,30,17.70
2015,01,18,01,31,17.70
2015,01,18,01,32,17.70
2015,01,18,01,33,16.10
2015,01,18,01,34,11.30
2015,01,18,01,35,12.90
2015,01,18,01,36,14.50
2015,01,18,01,37,11.30
2015,01,18,01,38,14.50
2015,01,18,01,39,11.30
2015,01,18,01,40,9.60
2015,01,18,01,41,9.60
2015,01,18,01,42,9.60
2015,01,18,01,43,14.50
2015,01,18,01,44,8.10
2015,01,18,01,45,27.40
2015,01,18,01,46,25.70
2015,01,18,01,47,37.00
2015,01,18,01,48,22.50
2015,01,18,01,49,22.50
2015,01,18,01,50,29.00
2015,01,18,01,51,20.90
2015,01,18,01,52,29.00
2015,01,18,01,53,22.50
2015,01,18,01,54,24.20
2015,01,18,01,55,24.20
2015,01,18,01,56,29.00
2015,01,18,01,57,41.80
2015,01,18,01,58,38.60
2015,01,18,01,59,32.20
2015,01,18,02,00,33.80
2015,01,18,02,01,32.20
2015,01,18,02,02,37.00
2015,01,18,02,03,27.40
2015,01,18,02,04,33.80
2015,01,18,02,05,37.00
2015,01,18,02,06,38.60
2015,01,18,02,07,29.00
2015,01,18,02,08,35.40
2015,01,18,02,09,29.00
2015,01,18,02,10,40.20
2015,01,18,02,11,45.10
2015,01,18,02,12,25.70
2015,01,18,02,13,29.00
2015,01,18,02,14,33.80
2015,01,18,02,15,37.00
2015,01,18,02,16,35.40
2015,01,18,02,17,43.50
2015,01,18,02,18,29.00
2015,01,18,02,19,24.20
2015,01,18,02,20,45.10
2015,01,18,02,21,32.20
2015,01,18,02,22,43.50
2015,01,18,02,23,30.60
2015,01,18,02,24,25.70
2015,01,18,02,25,27.40
2015,01,18,02,26,37.00
2015,01,18,02,27,29.00
2015,01,18,02,28,43.50
2015,01,18,02,29,38.60
2015,01,18,02,30,22.50
2015,01,18,02,31,29.00
2015,01,18,02,32,41.80
2015,01,18,02,33,27.40
2015,01,18,02,34,40.20
2015,01,18,02,35,40.20
2015,01,18,02,36,32.20
2015,01,18,02,37,38.60
2015,01,18,02,38,33.80
2015,01,18,02,39,27.40
2015,01,18,02,40,29.00
2015,01,18,02,41,30.60
2015,01,18,02,42,30.60
2015,01,18,02,43,27.40
2015,01,18,02,44,32.20
2015,01,18,02,45,25.70
2015,01,18,02,46,32.20
2015,01,18,02,47,32.20
2015,01,18,02,48,29.00
2015,01,18,02,49,25.70
2015,01,18,02,50,25.70
2015,01,18,02,51,19.30
2015,01,18,02,52,45.10
2015,01,18,02,53,24.20
2015,01,18,02,54,22.50
2015,01,18,02,55,27.40
2015,01,18,02,56,24.20
2015,01,18,02,57,37.00
2015,01,18,02,58,22.50
2015,01,18,02,59,24.20
2015,01,18,03,00,20.90
2015,01,18,03,01,33.80
2015,01,18,03,02,20.90
2015,01,18,03,03,29.00
2015,01,18,03,04,20.90
2015,01,18,03,05,20.90
2015,01,18,03,06,17.70
2015,01,18,03,07,27.40
2015,01,18,03,08,20.90
2015,01,18,03,09,30.60
2015,01,18,03,10,17.70
2015,01,18,03,11,22.50
2015,01,18,03,12,30.60
2015,01,18,03,13,30.60
2015,01,18,03,14,22.50
2015,01,18,03,15,22.50
2015,01,18,03,16,25.70
2015,01,18,03,17,25.70
2015,01,18,03,18,29.00
2015,01,18,03,19,24.20
2015,01,18,03,20,20.90
2015,01,18,03,21,25.70
2015,01,18,03,22,19.30
2015,01,18,03,23,22.50
2015,01,18,03,24,20.90
2015,01,18,03,25,19.30
2015,01,18,03,26,17.70
2015,01,18,03,27,19.30
2015,01,18,03,28,11.30
2015,01,18,03,29,16.10
2015,01,18,03,30,19.30
2015,01,18,03,31,20.90
2015,01,18,03,32,16.10
2015,01,18,03,33,14.50
2015,01,18,03,34,8.10
2015,01,18,03,35,16.10
2015,01,18,03,36,17.70
2015,01,18,03,37,17.70
2015,01,18,03,38,17.70
2015,01,18,03,39,11.30
2015,01,18,03,40,17.70
2015,01,18,03,41,16.10
2015,01,18,03,42,17.70
2015,01,18,03,43,16.10
2015,01,18,03,44,9.60
2015,01,18,03,45,9.60
2015,01,18,03,46,11.30
2015,01,18,03,47,11.30
2015,01,18,03,48,11.30
2015,01,18,03,49,6.40
2015,01,18,03,51,3.20
2015,01,18,03,52,1.60
2015,01,18,03,53,1.60
2015,01,18,03,56,4.80
2015,01,18,03,57,4.80
2015,01,18,03,58,3.20
2015,01,18,03,59,4.80
2015,01,18,04,00,4.80
2015,01,18,04,01,3.20
2015,01,18,04,02,6.40
2015,01,18,04,03,19.30
2015,01,18,04,04,14.50
2015,01,18,04,05,11.30
2015,01,18,04,06,11.30
2015,01,18,04,07,9.60
2015,01,18,04,08,16.10
2015,01,18,04,09,20.90
2015,01,18,04,10,20.90
2015,01,18,04,11,16.10
2015,01,18,04,12,16.10
2015,01,18,04,13,11.30
2015,01,18,04,14,14.50
2015,01,18,04,15,9.60
2015,01,18,04,16,11.30
2015,01,18,04,17,11.30
2015,01,18,04,18,8.10
2015,01,18,04,19,8.10
2015,01,18,04,20,8.10
2015,01,18,04,21,3.20
2015,01,18,04,22,3.20
2015,01,18,04,23,4.80
2015,01,18,04,25,11.30
2015,01,18,04,26,8.10
2015,01,18,04,27,4.80
2015,01,18,04,28,1.60
2015,01,18,04,29,1.60
2015,01,18,04,30,1.60
2015,01,18,04,31,4.80
2015,01,18,04,32,8.10
2015,01,18,04,33,8.10
2015,01,18,04,34,9.60
2015,01,18,04,35,9.60
2015,01,18,04,36,14.50
2015,01,18,04,37,12.90
2015,01,18,04,38,6.40
2015,01,18,04,39,4.80
2015,01,18,04,40,4.80
2015,01,18,04,41,6.40
2015,01,18,04,42,8.10
2015,01,18,04,43,6.40
2015,01,18,04,44,16.10
2015,01,18,04,45,9.60
2015,01,18,04,46,4.80
2015,01,18,04,47,9.60
2015,01,18,04,48,6.40
2015,01,18,04,49,3.20
2015,01,18,04,50,4.80
2015,01,18,04,51,6.40
2015,01,18,04,52,4.80
2015,01,18,04,53,1.60
2015,01,18,04,54,6.40
2015,01,18,04,55,4.80
2015,01,18,04,56,3.20
2015,01,18,04,57,8.10
2015,01,18,04,58,6.40
2015,01,18,04,59,4.80
2015,01,18,05,00,3.20
2015,01,18,05,01,4.80
2015,01,18,05,02,4.80
2015,01,18,05,04,9.60
2015,01,18,05,05,6.40
2015,01,18,05,06,4.80
2015,01,18,05,07,3.20
2015,01,18,05,08,6.40
2015,01,18,05,09,8.10
2015,01,18,05,10,3.20
2015,01,18,05,11,3.20
2015,01,18,05,12,4.80
2015,01,18,05,13,8.10
2015,01,18,05,14,8.10
2015,01,18,05,15,8.10
2015,01,18,05,16,9.60
2015,01,18,05,17,17.70
2015,01,18,05,18,16.10
2015,01,18,05,19,6.40
2015,01,18,05,20,16.10
2015,01,18,05,21,17.70
2015,01,18,05,22,16.10
2015,01,18,05,23,16.10
2015,01,18,05,24,11.30
2015,01,18,05,25,20.90
2015,01,18,05,26,11.30
2015,01,18,05,27,12.90
2015,01,18,05,28,11.30
2015,01,18,05,29,9.60
2015,01,18,05,30,11.30
2015,01,18,05,31,11.30
2015,01,18,05,32,19.30
2015,01,18,05,33,16.10
2015,01,18,05,34,14.50
2015,01,18,05,35,16.10
2015,01,18,05,36,20.90
2015,01,18,05,37,19.30
2015,01,18,05,38,14.50
2015,01,18,05,39,17.70
2015,01,18,05,40,22.50
2015,01,18,05,41,22.50
2015,01,18,05,42,20.90
2015,01,18,05,43,27.40
2015,01,18,05,44,20.90
2015,01,18,05,45,33.80
2015,01,18,05,46,27.40
2015,01,18,05,47,27.40
2015,01,18,05,48,20.90
2015,01,18,05,49,14.50
2015,01,18,05,50,24.20
2015,01,18,05,51,20.90
2015,01,18,05,52,14.50
2015,01,18,05,53,20.90
2015,01,18,05,54,30.60
2015,01,18,05,55,20.90
2015,01,18,05,56,33.80
2015,01,18,05,57,27.40
2015,01,18,05,58,27.40
2015,01,18,05,59,35.40
2015,01,18,06,00,32.20
2015,01,18,06,01,29.00
2015,01,18,06,02,45.10
2015,01,18,06,03,41.80
2015,01,18,06,04,41.80
2015,01,18,06,05,48.30
2015,01,18,06,06,29.00
2015,01,18,06,07,48.30
2015,01,18,06,08,45.10
2015,01,18,06,09,56.30
2015,01,18,06,10,48.30
2015,01,18,06,11,46.70
2015,01,18,06,12,53.10
2015,01,18,06,13,51.50
2015,01,18,06,14,53.10
2015,01,18,06,15,53.10
2015,01,18,06,16,49.90
2015,01,18,06,17,53.10
2015,01,18,06,18,51.50
2015,01,18,06,19,51.50
2015,01,18,06,20,57.90
2015,01,18,06,21,54.70
2015,01,18,06,22,56.30
2015,01,18,06,23,54.70
2015,01,18,06,24,40.20
2015,01,18,06,25,53.10
2015,01,18,06,26,43.50
2015,01,18,06,27,53.10
2015,01,18,06,28,53.10
2015,01,18,06,29,53.10
2015,01,18,06,30,48.30
2015,01,18,06,31,49.90
2015,01,18,06,32,64.40
2015,01,18,06,33,45.10
2015,01,18,06,34,48.30
2015,01,18,06,35,41.80
2015,01,18,06,36,57.90
2015,01,18,06,37,56.30
2015,01,18,06,38,45.10
2015,01,18,06,39,38.60
2015,01,18,06,40,53.10
2015,01,18,06,41,49.90
2015,01,18,06,42,61.20
2015,01,18,06,43,49.90
2015,01,18,06,44,49.90
2015,01,18,06,45,61.20
2015,01,18,06,46,46.70
2015,01,18,06,47,56.30
2015,01,18,06,48,43.50
2015,01,18,06,49,51.50
2015,01,18,06,50,43.50
2015,01,18,06,51,43.50
2015,01,18,06,52,41.80
2015,01,18,06,53,45.10
2015,01,18,06,54,40.20
2015,01,18,06,55,51.50
2015,01,18,06,56,40.20
2015,01,18,06,57,38.60
2015,01,18,06,58,49.90
2015,01,18,06,59,35.40
2015,01,18,07,00,54.70
2015,01,18,07,01,53.10
2015,01,18,07,02,51.50
2015,01,18,07,03,61.20
2015,01,18,07,04,53.10
2015,01,18,07,05,41.80
2015,01,18,07,06,54.70
2015,01,18,07,07,54.70
2015,01,18,07,08,62.70
2015,01,18,07,09,51.50
2015,01,18,07,10,62.70
2015,01,18,07,11,61.20
2015,01,18,07,12,74.00
2015,01,18,07,13,82.10
2015,01,18,07,14,72.40
2015,01,18,07,15,64.40
2015,01,18,07,16,64.40
2015,01,18,07,17,54.70
2015,01,18,07,18,53.10
2015,01,18,07,19,54.70
2015,01,18,07,20,59.50
2015,01,18,07,21,40.20
2015,01,18,07,22,59.50
2015,01,18,07,23,53.10
2015,01,18,07,24,66.00
2015,01,18,07,25,57.90
2015,01,18,07,26,61.20
2015,01,18,07,27,57.90
2015,01,18,07,28,54.70
2015,01,18,07,29,54.70
2015,01,18,07,30,67.60
2015,01,18,07,31,66.00
2015,01,18,07,32,56.30
2015,01,18,07,33,56.30
2015,01,18,07,34,59.50
2015,01,18,07,35,72.40
2015,01,18,07,36,51.50
2015,01,18,07,37,53.10
2015,01,18,07,38,64.40
2015,01,18,07,39,48.30
2015,01,18,07,40,70.80
2015,01,18,07,41,53.10
2015,01,18,07,42,54.70
2015,01,18,07,43,54.70
2015,01,18,07,44,49.90
2015,01,18,07,45,53.10
2015,01,18,07,46,45.10
2015,01,18,07,47,41.80
2015,01,18,07,48,35.40
2015,01,18,07,49,61.20
2015,01,18,07,50,53.10
2015,01,18,07,51,48.30
2015,01,18,07,52,54.70
2015,01,18,07,53,53.10
2015,01,18,07,54,40.20
2015,01,18,07,55,40.20
2015,01,18,07,56,51.50
2015,01,18,07,57,54.70
2015,01,18,07,58,45.10
2015,01,18,07,59,49.90
2015,01,18,08,00,53.10
2015,01,18,08,01,56.30
2015,01,18,08,02,48.30
2015,01,18,08,03,56.30
2015,01,18,08,04,45.10
2015,01,18,08,05,53.10
2015,01,18,08,06,66.00
2015,01,18,08,07,53.10
2015,01,18,08,08,43.50
2015,01,18,08,09,56.30
2015,01,18,08,10,43.50
2015,01,18,08,11,54.70
2015,01,18,08,12,43.50
2015,01,18,08,13,53.10
2015,01,18,08,14,61.20
2015,01,18,08,15,64.40
2015,01,18,08,16,46.70
2015,01,18,08,17,51.50
2015,01,18,08,18,49.90
2015,01,18,08,19,53.10
2015,01,18,08,20,64.40
2015,01,18,08,21,69.20
2015,01,18,08,22,53.10
2015,01,18,08,23,51.50
2015,01,18,08,24,51.50
2015,01,18,08,25,61.20
2015,01,18,08,26,45.10
2015,01,18,08,27,53.10
2015,01,18,08,28,53.10
2015,01,18,08,29,61.20
2015,01,18,08,30,64.40
2015,01,18,08,31,40.20
2015,01,18,08,32,49.90
2015,01,18,08,33,56.30
2015,01,18,08,34,56.30
2015,01,18,08,35,46.70
2015,01,18,08,36,46.70
2015,01,18,08,37,51.50
2015,01,18,08,38,46.70
2015,01,18,08,39,45.10
2015,01,18,08,40,35.40
2015,01,18,08,41,49.90
2015,01,18,08,42,33.80
2015,01,18,08,43,38.60
2015,01,18,08,44,51.50
2015,01,18,08,45,46.70
2015,01,18,08,46,56.30
2015,01,18,08,47,30.60
2015,01,18,08,48,46.70
2015,01,18,08,49,56.30
2015,01,18,08,50,45.10
2015,01,18,08,51,41.80
2015,01,18,08,52,33.80
2015,01,18,08,53,54.70
2015,01,18,08,54,46.70
2015,01,18,08,55,32.20
2015,01,18,08,56,37.00
2015,01,18,08,57,53.10
2015,01,18,08,58,48.30
2015,01,18,08,59,66.00
2015,01,18,09,00,48.30
2015,01,18,09,01,35.40
2015,01,18,09,02,46.70
2015,01,18,09,03,38.60
2015,01,18,09,04,40.20
2015,01,18,09,05,49.90
2015,01,18,09,06,40.20
2015,01,18,09,07,32.20
2015,01,18,09,08,30.60
2015,01,18,09,09,41.80
2015,01,18,09,10,35.40
2015,01,18,09,11,37.00
2015,01,18,09,12,45.10
2015,01,18,09,13,45.10
2015,01,18,09,14,43.50
2015,01,18,09,15,46.70
2015,01,18,09,16,57.90
2015,01,18,09,17,45.10
2015,01,18,09,18,35.40
2015,01,18,09,19,35.40
2015,01,18,09,20,38.60
2015,01,18,09,21,46.70
2015,01,18,09,22,45.10
2015,01,18,09,23,49.90
2015,01,18,09,24,40.20
2015,01,18,09,25,35.40
2015,01,18,09,26,53.10
2015,01,18,09,27,40.20
2015,01,18,09,28,38.60
2015,01,18,09,29,24.20
2015,01,18,09,30,24.20
2015,01,18,09,31,29.00
2015,01,18,09,32,25.70
2015,01,18,09,33,29.00
2015,01,18,09,34,29.00
2015,01,18,09,35,27.40
2015,01,18,09,36,30.60
2015,01,18,09,37,32.20
2015,01,18,09,38,40.20
2015,01,18,09,39,33.80
2015,01,18,09,40,40.20
2015,01,18,09,41,43.50
2015,01,18,09,42,33.80
2015,01,18,09,43,29.00
2015,01,18,09,44,27.40
2015,01,18,09,45,27.40
2015,01,18,09,46,46.70
2015,01,18,09,47,51.50
2015,01,18,09,48,38.60
2015,01,18,09,49,24.20
2015,01,18,09,50,40.20
2015,01,18,09,51,41.80
2015,01,18,09,52,37.00
2015,01,18,09,53,35.40
2015,01,18,09,54,40.20
2015,01,18,09,55,37.00
2015,01,18,09,56,33.80
2015,01,18,09,57,41.80
2015,01,18,09,58,33.80
2015,01,18,09,59,46.70
2015,01,18,10,00,38.60
2015,01,18,10,01,30.60
2015,01,18,10,02,40.20
2015,01,18,10,03,30.60
2015,01,18,10,04,59.50
2015,01,18,10,05,45.10
2015,01,18,10,06,33.80
2015,01,18,10,07,30.60
2015,01,18,10,08,46.70
2015,01,18,10,09,33.80
2015,01,18,10,10,43.50
2015,01,18,10,11,51.50
2015,01,18,10,12,41.80
2015,01,18,10,13,33.80
2015,01,18,10,14,41.80
2015,01,18,10,15,41.80
2015,01,18,10,16,41.80
2015,01,18,10,17,22.50
2015,01,18,10,18,37.00
2015,01,18,10,19,41.80
2015,01,18,10,20,35.40
2015,01,18,10,21,48.30
2015,01,18,10,22,43.50
2015,01,18,10,23,45.10
2015,01,18,10,24,40.20
2015,01,18,10,25,45.10
2015,01,18,10,26,41.80
2015,01,18,10,27,37.00
2015,01,18,10,28,35.40
2015,01,18,10,29,35.40
2015,01,18,10,30,32.20
2015,01,18,10,31,43.50
2015,01,18,10,32,30.60
2015,01,18,10,33,33.80
2015,01,18,10,34,24.20
2015,01,18,10,35,22.50
2015,01,18,10,36,16.10
2015,01,18,10,37,25.70
2015,01,18,10,38,19.30
2015,01,18,10,39,25.70
2015,01,18,10,40,16.10
2015,01,18,10,41,25.70
2015,01,18,10,42,19.30
2015,01,18,10,43,29.00
2015,01,18,10,44,17.70
2015,01,18,10,45,35.40
2015,01,18,10,46,20.90
2015,01,18,10,47,38.60
2015,01,18,10,48,37.00
2015,01,18,10,49,32.20
2015,01,18,10,50,24.20
2015,01,18,10,51,30.60
2015,01,18,10,52,27.40
2015,01,18,10,53,30.60
2015,01,18,10,54,24.20
2015,01,18,10,55,27.40
2015,01,18,10,56,17.70
2015,01,18,10,57,17.70
2015,01,18,10,58,24.20
2015,01,18,10,59,19.30
2015,01,18,11,00,16.10
2015,01,18,11,01,25.70
2015,01,18,11,02,20.90
2015,01,18,11,03,16.10
2015,01,18,11,04,14.50
2015,01,18,11,05,16.10
2015,01,18,11,06,11.30
2015,01,18,11,07,11.30
2015,01,18,11,08,11.30
2015,01,18,11,09,12.90
2015,01,18,11,10,11.30
2015,01,18,11,11,8.10
2015,01,18,11,12,14.50
2015,01,18,11,13,8.10
2015,01,18,11,14,9.60
2015,01,18,11,15,14.50
2015,01,18,11,16,16.10
2015,01,18,11,17,8.10
2015,01,18,11,18,6.40
2015,01,18,11,19,12.90
2015,01,18,11,20,11.30
2015,01,18,11,21,17.70
2015,01,18,11,22,20.90
2015,01,18,11,23,22.50
2015,01,18,11,24,22.50
2015,01,18,11,25,32.20
2015,01,18,11,26,20.90
2015,01,18,11,27,27.40
2015,01,18,11,28,22.50
2015,01,18,11,29,24.20
2015,01,18,11,30,24.20
2015,01,18,11,31,19.30
2015,01,18,11,32,27.40
2015,01,18,11,33,25.70
2015,01,18,11,34,33.80
2015,01,18,11,35,32.20
2015,01,18,11,36,20.90
2015,01,18,11,37,22.50
2015,01,18,11,38,25.70
2015,01,18,11,39,30.60
2015,01,18,11,40,35.40
2015,01,18,11,41,25.70
2015,01,18,11,42,25.70
2015,01,18,11,43,27.40
2015,01,18,11,44,25.70
2015,01,18,11,45,22.50
2015,01,18,11,46,19.30
2015,01,18,11,47,32.20
2015,01,18,11,48,24.20
2015,01,18,11,49,20.90
2015,01,18,11,50,25.70
2015,01,18,11,51,29.00
2015,01,18,11,52,22.50
2015,01,18,11,53,17.70
2015,01,18,11,54,14.50
2015,01,18,11,55,16.10
2015,01,18,11,56,9.60
2015,01,18,11,57,17.70
2015,01,18,11,58,19.30
2015,01,18,11,59,27.40
2015,01,18,12,00,16.10
2015,01,18,12,01,22.50
2015,01,18,12,02,22.50
2015,01,18,12,03,16.10
2015,01,18,12,04,20.90
2015,01,18,12,05,19.30
2015,01,18,12,06,19.30
2015,01,18,12,07,11.30
2015,01,18,12,08,17.70
2015,01,18,12,09,14.50
2015,01,18,12,10,22.50
2015,01,18,12,11,16.10
2015,01,18,12,12,20.90
2015,01,18,12,13,33.80
2015,01,18,12,14,25.70
2015,01,18,12,15,22.50
2015,01,18,12,16,27.40
2015,01,18,12,17,30.60
2015,01,18,12,18,38.60
2015,01,18,12,19,32.20
2015,01,18,12,20,40.20
2015,01,18,12,21,35.40
2015,01,18,12,22,32.20
2015,01,18,12,23,27.40
2015,01,18,12,24,25.70
2015,01,18,12,25,27.40
2015,01,18,12,26,29.00
2015,01,18,12,27,24.20
2015,01,18,12,28,32.20
2015,01,18,12,29,35.40
2015,01,18,12,30,35.40
2015,01,18,12,31,32.20
2015,01,18,12,32,32.20
2015,01,18,12,33,38.60
2015,01,18,12,34,41.80
2015,01,18,12,35,30.60
2015,01,18,12,36,33.80
2015,01,18,12,37,27.40
2015,01,18,12,38,24.20
2015,01,18,12,39,25.70
2015,01,18,12,40,17.70
2015,01,18,12,41,27.40
2015,01,18,12,42,29.00
2015,01,18,12,43,46.70
2015,01,18,12,44,30.60
2015,01,18,12,45,27.40
2015,01,18,12,46,30.60
2015,01,18,12,47,24.20
2015,01,18,12,48,24.20
2015,01,18,12,49,19.30
2015,01,18,12,50,24.20
2015,01,18,12,51,24.20
2015,01,18,12,52,19.30
2015,01,18,12,53,29.00
2015,01,18,12,54,22.50
2015,01,18,12,55,27.40
2015,01,18,12,56,25.70
2015,01,18,12,57,24.20
2015,01,18,12,58,29.00
2015,01,18,12,59,30.60
2015,01,18,13,00,32.20
2015,01,18,13,01,30.60
2015,01,18,13,02,30.60
2015,01,18,13,03,32.20
2015,01,18,13,04,32.20
2015,01,18,13,05,20.90
2015,01,18,13,06,20.90
2015,01,18,13,07,33.80
2015,01,18,13,08,25.70
2015,01,18,13,09,27.40
2015,01,18,13,10,25.70
2015,01,18,13,11,27.40
2015,01,18,13,12,30.60
2015,01,18,13,13,17.70
2015,01,18,13,14,30.60
2015,01,18,13,15,25.70
2015,01,18,13,16,25.70
2015,01,18,13,17,30.60
2015,01,18,13,18,30.60
2015,01,18,13,19,32.20
2015,01,18,13,20,40.20
2015,01,18,13,21,35.40
2015,01,18,13,22,32.20
2015,01,18,13,23,37.00
2015,01,18,13,24,33.80
2015,01,18,13,25,27.40
2015,01,18,13,26,38.60
2015,01,18,13,27,37.00
2015,01,18,13,28,29.00
2015,01,18,13,29,27.40
2015,01,18,13,30,33.80
2015,01,18,13,31,30.60
2015,01,18,13,32,27.40
2015,01,18,13,33,33.80
2015,01,18,13,34,30.60
2015,01,18,13,35,27.40
2015,01,18,13,36,25.70
2015,01,18,13,37,27.40
2015,01,18,13,38,24.20
2015,01,18,13,39,29.00
2015,01,18,13,40,24.20
2015,01,18,13,41,19.30
2015,01,18,13,42,24.20
2015,01,18,13,43,22.50
2015,01,18,13,44,24.20
2015,01,18,13,45,16.10
2015,01,18,13,46,17.70
2015,01,18,13,47,20.90
2015,01,18,13,48,25.70
2015,01,18,13,49,29.00
2015,01,18,13,50,37.00
2015,01,18,13,51,25.70
2015,01,18,13,52,22.50
2015,01,18,13,53,22.50
2015,01,18,13,54,27.40
2015,01,18,13,55,32.20
2015,01,18,13,56,30.60
2015,01,18,13,57,24.20
2015,01,18,13,58,41.80
2015,01,18,13,59,27.40
2015,01,18,14,00,33.80
2015,01,18,14,01,30.60
2015,01,18,14,02,37.00
2015,01,18,14,03,33.80
2015,01,18,14,04,22.50
2015,01,18,14,05,37.00
2015,01,18,14,06,29.00
2015,01,18,14,07,27.40
2015,01,18,14,08,19.30
2015,01,18,14,09,25.70
2015,01,18,14,10,25.70
2015,01,18,14,11,30.60
2015,01,18,14,12,35.40
2015,01,18,14,13,29.00
2015,01,18,14,14,24.20
2015,01,18,14,15,24.20
2015,01,18,14,16,35.40
2015,01,18,14,17,33.80
2015,01,18,14,18,29.00
2015,01,18,14,19,17.70
2015,01,18,14,20,22.50
2015,01,18,14,21,25.70
2015,01,18,14,22,30.60
2015,01,18,14,23,30.60
2015,01,18,14,24,30.60
2015,01,18,14,25,25.70
2015,01,18,14,26,27.40
2015,01,18,14,27,19.30
2015,01,18,14,28,24.20
2015,01,18,14,29,35.40
2015,01,18,14,30,25.70
2015,01,18,14,31,33.80
2015,01,18,14,32,29.00
2015,01,18,14,33,32.20
2015,01,18,14,34,30.60
2015,01,18,14,35,27.40
2015,01,18,14,36,24.20
2015,01,18,14,37,19.30
2015,01,18,14,38,24.20
2015,01,18,14,39,20.90
2015,01,18,14,40,19.30
2015,01,18,14,41,25.70
2015,01,18,14,42,27.40
2015,01,18,14,43,27.40
2015,01,18,14,44,22.50
2015,01,18,14,45,29.00
2015,01,18,14,46,24.20
2015,01,18,14,47,14.50
2015,01,18,14,48,20.90
2015,01,18,14,49,27.40
2015,01,18,14,50,32.20
2015,01,18,14,51,27.40
2015,01,18,14,52,22.50
2015,01,18,14,53,35.40
2015,01,18,14,54,35.40
2015,01,18,14,55,29.00
2015,01,18,14,56,33.80
2015,01,18,14,57,45.10
2015,01,18,14,58,22.50
2015,01,18,14,59,37.00
2015,01,18,15,00,33.80
2015,01,18,15,01,33.80
2015,01,18,15,02,35.40
2015,01,18,15,03,38.60
2015,01,18,15,04,30.60
2015,01,18,15,05,24.20
2015,01,18,15,06,24.20
2015,01,18,15,07,35.40
2015,01,18,15,08,20.90
2015,01,18,15,09,20.90
2015,01,18,15,10,20.90
2015,01,18,15,11,22.50
2015,01,18,15,12,27.40
2015,01,18,15,13,22.50
2015,01,18,15,14,25.70
2015,01,18,15,15,17.70
2015,01,18,15,16,19.30
2015,01,18,15,17,17.70
2015,01,18,15,18,16.10
2015,01,18,15,19,24.20
2015,01,18,15,20,19.30
2015,01,18,15,21,9.60
2015,01,18,15,22,17.70
2015,01,18,15,23,30.60
2015,01,18,15,24,24.20
2015,01,18,15,25,19.30
2015,01,18,15,26,9.60
2015,01,18,15,27,14.50
2015,01,18,15,28,16.10
2015,01,18,15,29,20.90
2015,01,18,15,30,16.10
2015,01,18,15,31,24.20
2015,01,18,15,32,16.10
2015,01,18,15,33,17.70
2015,01,18,15,34,20.90
2015,01,18,15,35,20.90
2015,01,18,15,36,12.90
2015,01,18,15,37,14.50
2015,01,18,15,38,17.70
2015,01,18,15,39,16.10
2015,01,18,15,40,22.50
2015,01,18,15,41,14.50
2015,01,18,15,42,20.90
2015,01,18,15,43,12.90
2015,01,18,15,44,17.70
2015,01,18,15,45,20.90
2015,01,18,15,46,17.70
2015,01,18,15,47,24.20
2015,01,18,15,48,20.90
2015,01,18,15,49,27.40
2015,01,18,15,50,17.70
2015,01,18,15,51,11.30
2015,01,18,15,52,25.70
2015,01,18,15,53,19.30
2015,01,18,15,54,25.70
2015,01,18,15,55,24.20
2015,01,18,15,56,38.60
2015,01,18,15,57,32.20
2015,01,18,15,58,40.20
2015,01,18,15,59,32.20
2015,01,18,16,00,33.80
2015,01,18,16,01,41.80
2015,01,18,16,02,27.40
2015,01,18,16,03,32.20
2015,01,18,16,04,29.00
2015,01,18,16,05,40.20
2015,01,18,16,06,30.60
2015,01,18,16,07,25.70
2015,01,18,16,08,32.20
2015,01,18,16,09,25.70
2015,01,18,16,10,24.20
2015,01,18,16,11,24.20
2015,01,18,16,12,27.40
2015,01,18,16,13,24.20
2015,01,18,16,14,19.30
2015,01,18,16,15,24.20
2015,01,18,16,16,32.20
2015,01,18,16,17,33.80
2015,01,18,16,18,35.40
2015,01,18,16,19,29.00
2015,01,18,16,20,29.00
2015,01,18,16,21,19.30
2015,01,18,16,22,25.70
2015,01,18,16,23,25.70
2015,01,18,16,24,19.30
2015,01,18,16,25,17.70
2015,01,18,16,26,19.30
2015,01,18,16,27,27.40
2015,01,18,16,28,24.20
2015,01,18,16,29,32.20
2015,01,18,16,30,25.70
2015,01,18,16,31,20.90
2015,01,18,16,32,32.20
2015,01,18,16,33,35.40
2015,01,18,16,34,29.00
2015,01,18,16,35,35.40
2015,01,18,16,36,29.00
2015,01,18,16,37,32.20
2015,01,18,16,38,30.60
2015,01,18,16,39,35.40
2015,01,18,16,40,29.00
2015,01,18,16,41,25.70
2015,01,18,16,42,27.40
2015,01,18,16,43,27.40
2015,01,18,16,44,27.40
2015,01,18,16,45,20.90
2015,01,18,16,46,19.30
2015,01,18,16,47,27.40
2015,01,18,16,48,24.20
2015,01,18,16,49,22.50
2015,01,18,16,50,24.20
2015,01,18,16,51,22.50
2015,01,18,16,52,22.50
2015,01,18,16,53,19.30
2015,01,18,16,54,14.50
2015,01,18,16,55,17.70
2015,01,18,16,56,19.30
2015,01,18,16,57,16.10
2015,01,18,16,58,19.30
2015,01,18,16,59,25.70
2015,01,18,17,00,17.70
2015,01,18,17,01,17.70
2015,01,18,17,02,22.50
2015,01,18,17,03,17.70
2015,01,18,17,04,22.50
2015,01,18,17,05,22.50
2015,01,18,17,06,17.70
2015,01,18,17,07,22.50
2015,01,18,17,08,20.90
2015,01,18,17,09,29.00
2015,01,18,17,10,30.60
2015,01,18,17,11,20.90
2015,01,18,17,12,30.60
2015,01,18,17,13,30.60
2015,01,18,17,14,20.90
2015,01,18,17,15,20.90
2015,01,18,17,16,22.50
2015,01,18,17,17,25.70
2015,01,18,17,18,22.50
2015,01,18,17,19,14.50
2015,01,18,17,20,19.30
2015,01,18,17,21,19.30
2015,01,18,17,22,19.30
2015,01,18,17,23,20.90
2015,01,18,17,24,17.70
2015,01,18,17,25,11.30
2015,01,18,17,26,11.30
2015,01,18,17,27,12.90
2015,01,18,17,28,19.30
2015,01,18,17,29,16.10
2015,01,18,17,30,11.30
2015,01,18,17,31,19.30
2015,01,18,17,32,16.10
2015,01,18,17,33,17.70
2015,01,18,17,34,22.50
2015,01,18,17,35,20.90
2015,01,18,17,36,16.10
2015,01,18,17,37,11.30